• In Portugal
  • List of Countries
  • For 7 days
  • Water Temperature
  • Satellite Maps
  • Weather Map
  • Weather Widgets
  • user-avatar
    Login

    Hourly Weather Rozana

    Today, 18 July, Wednesday

    Time Temperature Precipitation Wind Pressure Humidity
    00:00 +17°C° 0.1 mm 4 mps 722 mmHg 94%
    01:00 +17°C° 0.1 mm 4 mps 722 mmHg 95%
    02:00 +16°C° 0.3 mm 5 mps 722 mmHg 95%
    03:00 +16°C° 0.3 mm 5 mps 722 mmHg 94%
    04:00 +16°C° 0.3 mm 5 mps 721 mmHg 94%
    05:00 +16°C° 1.4 mm 6 mps 722 mmHg 94%
    06:00 +16°C° 1.4 mm 6 mps 722 mmHg 94%
    07:00 +16°C° 1.4 mm 7 mps 722 mmHg 94%
    08:00 +16°C° 1.5 mm 7 mps 722 mmHg 93%
    09:00 +16°C° 1.5 mm 7 mps 722 mmHg 93%
    10:00 +16°C° 1.5 mm 8 mps 722 mmHg 93%
    11:00 +16°C° 1 mm 8 mps 723 mmHg 93%
    12:00 +16°C° 1 mm 8 mps 723 mmHg 93%
    13:00 +16°C° 1 mm 8 mps 723 mmHg 93%
    14:00 +16°C° 0.4 mm 7 mps 723 mmHg 92%
    15:00 +16°C° 0.4 mm 7 mps 723 mmHg 91%
    16:00 +17°C° 0.4 mm 7 mps 724 mmHg 91%
    17:00 +17°C° 0.2 mm 6 mps 724 mmHg 91%
    18:00 +16°C° 0.2 mm 6 mps 724 mmHg 92%
    19:00 +16°C° 0.2 mm 5 mps 724 mmHg 92%
    20:00 +16°C° 0.1 mm 5 mps 725 mmHg 93%
    21:00 +17°C° 0.1 mm 4 mps 725 mmHg 94%
    22:00 +17°C° 0.1 mm 4 mps 725 mmHg 94%
    23:00 +17°C° 0.2 mm 4 mps 725 mmHg 94%

    Tomorrow, 19 July, Thursday

    Time Temperature Precipitation Wind Pressure Humidity
    00:00 +17°C° 0.2 mm 4 mps 725 mmHg 95%
    01:00 +17°C° 0.2 mm 4 mps 726 mmHg 95%
    02:00 +17°C° 0.2 mm 4 mps 726 mmHg 95%
    03:00 +17°C° 0.2 mm 4 mps 726 mmHg 95%
    04:00 +16°C° 0.2 mm 3 mps 726 mmHg 95%
    05:00 +17°C° 0.1 mm 4 mps 726 mmHg 94%
    06:00 +17°C° 0.1 mm 4 mps 726 mmHg 93%
    07:00 +18°C° 0.1 mm 4 mps 726 mmHg 91%
    08:00 +18°C° 0.1 mm 4 mps 726 mmHg 90%
    09:00 +17°C° 0.1 mm 5 mps 727 mmHg 88%
    10:00 +17°C° 0.1 mm 5 mps 727 mmHg 87%
    11:00 +17°C° 0.2 mm 5 mps 727 mmHg 87%
    12:00 +17°C° 0.2 mm 5 mps 727 mmHg 87%
    13:00 +17°C° 0.2 mm 5 mps 727 mmHg 87%
    14:00 +17°C° 0.1 mm 5 mps 727 mmHg 88%
    15:00 +18°C° 0.1 mm 4 mps 727 mmHg 89%
    16:00 +18°C° 0.1 mm 4 mps 727 mmHg 91%
    17:00 +18°C° 0.1 mm 4 mps 727 mmHg 92%
    18:00 +18°C° 0.1 mm 3 mps 727 mmHg 93%
    19:00 +18°C° 0.1 mm 3 mps 726 mmHg 94%
    20:00 +17°C° 0.3 mm 3 mps 727 mmHg 94%
    21:00 +17°C° 0.3 mm 3 mps 727 mmHg 95%
    22:00 +17°C° 0.3 mm 3 mps 727 mmHg 96%
    23:00 +17°C° 0.2 mm 3 mps 727 mmHg 96%

    Day after tomorrow, 20 July, Friday

    Time Temperature Precipitation Wind Pressure Humidity
    00:00 +16°C° 0.2 mm 3 mps 727 mmHg 96%
    01:00 +16°C° 0.2 mm 3 mps 727 mmHg 96%
    02:00 +16°C° 0.1 mm 3 mps 727 mmHg 96%
    03:00 +16°C° 0.1 mm 2 mps 727 mmHg 96%
    04:00 +16°C° 0.1 mm 2 mps 727 mmHg 96%
    05:00 +16°C° 0 mm 2 mps 727 mmHg 94%
    06:00 +17°C° 0 mm 3 mps 727 mmHg 91%
    07:00 +17°C° 0 mm 3 mps 727 mmHg 88%
    08:00 +19°C° 0 mm 3 mps 727 mmHg 82%
    09:00 +20°C° 0 mm 3 mps 727 mmHg 76%
    10:00 +21°C° 0 mm 3 mps 727 mmHg 70%
    11:00 +22°C° 0 mm 3 mps 727 mmHg 66%
    12:00 +24°C° 0 mm 3 mps 727 mmHg 63%
    13:00 +25°C° 0 mm 3 mps 727 mmHg 60%
    14:00 +25°C° 0 mm 3 mps 726 mmHg 58%
    15:00 +25°C° 0 mm 3 mps 726 mmHg 57%
    16:00 +25°C° 0 mm 3 mps 726 mmHg 56%
    17:00 +24°C° 0 mm 2 mps 726 mmHg 61%
    18:00 +23°C° 0 mm 2 mps 726 mmHg 65%
    19:00 +22°C° 0 mm 1 mps 725 mmHg 70%
    20:00 +20°C° 0 mm 1 mps 725 mmHg 72%
    21:00 +19°C° 0 mm 1 mps 725 mmHg 74%
    22:00 +16°C° 0 mm 1 mps 725 mmHg 77%
    23:00 +16°C° 0 mm 1 mps 725 mmHg 77%

    21 July, Saturday

    Time Temperature Precipitation Wind Pressure Humidity
    00:00 +15°C° 0 mm 1 mps 725 mmHg 78%
    01:00 +15°C° 0 mm 1 mps 725 mmHg 78%
    02:00 +15°C° 0 mm 1 mps 725 mmHg 78%
    03:00 +14°C° 0 mm 1 mps 724 mmHg 79%
    04:00 +14°C° 0 mm 1 mps 724 mmHg 79%
    05:00 +16°C° 0 mm 1 mps 724 mmHg 75%
    06:00 +19°C° 0 mm 1 mps 724 mmHg 71%
    07:00 +20°C° 0 mm 1 mps 725 mmHg 67%
    08:00 +22°C° 0 mm 1 mps 725 mmHg 62%
    09:00 +23°C° 0 mm 1 mps 725 mmHg 58%
    10:00 +24°C° 0 mm 1 mps 725 mmHg 53%
    11:00 +25°C° 0 mm 1 mps 725 mmHg 52%
    12:00 +26°C° 0 mm 1 mps 724 mmHg 50%
    13:00 +26°C° 0 mm 1 mps 724 mmHg 48%
    14:00 +26°C° 0 mm 1 mps 724 mmHg 49%
    15:00 +26°C° 0 mm 1 mps 724 mmHg 49%
    16:00 +26°C° 0 mm 2 mps 724 mmHg 50%
    17:00 +25°C° 0 mm 2 mps 723 mmHg 57%
    18:00 +23°C° 0 mm 2 mps 723 mmHg 63%
    19:00 +21°C° 0 mm 2 mps 723 mmHg 69%
    20:00 +20°C° 0 mm 2 mps 723 mmHg 72%
    21:00 +19°C° 0 mm 2 mps 723 mmHg 74%
    22:00 +18°C° 0 mm 1 mps 723 mmHg 76%
    23:00 +18°C° 0 mm 1 mps 723 mmHg 77%

    22 July, Sunday

    Time Temperature Precipitation Wind Pressure Humidity
    00:00 +18°C° 0 mm 1 mps 723 mmHg 78%
    01:00 +16°C° 0 mm 1 mps 723 mmHg 79%
    02:00 +16°C° 0 mm 1 mps 723 mmHg 80%
    03:00 +15°C° 0 mm 1 mps 723 mmHg 81%
    04:00 +15°C° 0 mm 1 mps 723 mmHg 81%
    05:00 +18°C° 0 mm 1 mps 723 mmHg 77%
    06:00 +19°C° 0 mm 1 mps 723 mmHg 73%
    07:00 +21°C° 0 mm 1 mps 723 mmHg 69%
    08:00 +21°C° 0 mm 2 mps 724 mmHg 66%
    09:00 +23°C° 0 mm 2 mps 724 mmHg 62%
    10:00 +24°C° 0 mm 3 mps 724 mmHg 59%
    11:00 +24°C° 0 mm 3 mps 724 mmHg 57%
    12:00 +25°C° 0 mm 4 mps 724 mmHg 55%
    13:00 +25°C° 0 mm 4 mps 724 mmHg 53%
    14:00 +25°C° 0 mm 4 mps 724 mmHg 52%
    15:00 +25°C° 0 mm 4 mps 724 mmHg 52%
    16:00 +25°C° 0 mm 4 mps 724 mmHg 52%
    17:00 +22°C° 0 mm 4 mps 724 mmHg 57%
    18:00 +21°C° 0 mm 3 mps 724 mmHg 63%
    19:00 +20°C° 0 mm 3 mps 724 mmHg 69%
    20:00 +19°C° 0 mm 2 mps 724 mmHg 71%
    21:00 +18°C° 0 mm 2 mps 725 mmHg 73%
    22:00 +17°C° 0 mm 2 mps 725 mmHg 75%
    23:00 +17°C° 0 mm 2 mps 725 mmHg 78%

    23 July, Monday

    Time Temperature Precipitation Wind Pressure Humidity
    00:00 +16°C° 0 mm 2 mps 725 mmHg 81%
    01:00 +15°C° 0 mm 2 mps 725 mmHg 84%
    02:00 +15°C° 0 mm 2 mps 726 mmHg 85%
    03:00 +15°C° 0 mm 2 mps 726 mmHg 86%
    04:00 +15°C° 0 mm 2 mps 726 mmHg 87%
    05:00 +16°C° 0 mm 2 mps 726 mmHg 83%
    06:00 +17°C° 0 mm 3 mps 727 mmHg 79%
    07:00 +18°C° 0 mm 3 mps 727 mmHg 75%
    08:00 +19°C° 0.1 mm 3 mps 727 mmHg 72%
    09:00 +21°C° 0.1 mm 3 mps 727 mmHg 68%
    10:00 +22°C° 0.1 mm 3 mps 727 mmHg 64%
    11:00 +22°C° 0.1 mm 3 mps 727 mmHg 62%
    12:00 +23°C° 0.1 mm 4 mps 727 mmHg 60%
    13:00 +25°C° 0.1 mm 4 mps 727 mmHg 57%
    14:00 +25°C° 0.1 mm 4 mps 727 mmHg 57%
    15:00 +25°C° 0.1 mm 4 mps 727 mmHg 57%
    16:00 +25°C° 0.1 mm 4 mps 727 mmHg 57%
    17:00 +22°C° 0 mm 3 mps 727 mmHg 62%
    18:00 +21°C° 0 mm 3 mps 727 mmHg 68%
    19:00 +20°C° 0 mm 2 mps 727 mmHg 73%
    20:00 +19°C° 0 mm 2 mps 727 mmHg 76%
    21:00 +18°C° 0 mm 1 mps 727 mmHg 79%
    22:00 +16°C° 0 mm 1 mps 727 mmHg 82%
    23:00 +16°C° 0 mm 1 mps 727 mmHg 84%
    Show more